When you browse on this site, cookies collect data to enhance your experience and personalize the content and advertising you see.
Visit our Privacy Policy to learn more. By continuing to use the site, you agree to this use of cookies and data.
  • In Spain
  • List of Countries
  • For 7 days
  • Water Temperature
  • Satellite Maps
  • Weather Map
  • Weather Widgets
  • user-avatar
    Login

    Hourly Weather Kaprun

    Today, 23 April, Tuesday

    Time Temperature Precipitation Wind Pressure Humidity
    00:00 -1°C° 0 mm 4 mps 589 mmHg 84%
    01:00 -1°C° 0 mm 5 mps 589 mmHg 83%
    02:00 -1°C° 0 mm 5 mps 589 mmHg 83%
    03:00 -2°C° 0 mm 4 mps 588 mmHg 83%
    04:00 -2°C° 0 mm 4 mps 588 mmHg 83%
    05:00 -1°C° 0 mm 4 mps 588 mmHg 82%
    06:00 0°C° 0 mm 4 mps 588 mmHg 81%
    07:00 +1°C° 0 mm 5 mps 588 mmHg 79%
    08:00 +1°C° 0.1 mm 5 mps 588 mmHg 77%
    09:00 +2°C° 0.1 mm 5 mps 589 mmHg 75%
    10:00 +3°C° 0.1 mm 5 mps 589 mmHg 73%
    11:00 +5°C° 0 mm 5 mps 589 mmHg 70%
    12:00 +5°C° 0 mm 5 mps 589 mmHg 67%
    13:00 +6°C° 0 mm 5 mps 589 mmHg 64%
    14:00 +6°C° 0 mm 5 mps 589 mmHg 65%
    15:00 +6°C° 0 mm 5 mps 589 mmHg 65%
    16:00 +5°C° 0 mm 5 mps 589 mmHg 66%
    17:00 +4°C° 0 mm 4 mps 589 mmHg 71%
    18:00 +3°C° 0 mm 4 mps 588 mmHg 76%
    19:00 0°C° 0 mm 4 mps 588 mmHg 81%
    20:00 0°C° 0 mm 4 mps 588 mmHg 82%
    21:00 0°C° 0 mm 4 mps 588 mmHg 82%
    22:00 0°C° 0 mm 4 mps 588 mmHg 83%
    23:00 0°C° 0 mm 4 mps 589 mmHg 83%

    Tomorrow, 24 April, Wednesday

    Time Temperature Precipitation Wind Pressure Humidity
    00:00 0°C° 0 mm 4 mps 589 mmHg 84%
    01:00 0°C° 0 mm 4 mps 589 mmHg 84%
    02:00 0°C° 0 mm 4 mps 589 mmHg 84%
    03:00 0°C° 0 mm 4 mps 589 mmHg 84%
    04:00 0°C° 0 mm 4 mps 590 mmHg 84%
    05:00 +1°C° 0 mm 4 mps 590 mmHg 82%
    06:00 +1°C° 0 mm 4 mps 591 mmHg 80%
    07:00 +3°C° 0 mm 4 mps 591 mmHg 78%
    08:00 +3°C° 0 mm 5 mps 592 mmHg 74%
    09:00 +6°C° 0 mm 5 mps 593 mmHg 69%
    10:00 +7°C° 0 mm 5 mps 594 mmHg 65%
    11:00 +7°C° 0 mm 5 mps 594 mmHg 64%
    12:00 +8°C° 0 mm 5 mps 595 mmHg 63%
    13:00 +8°C° 0 mm 5 mps 595 mmHg 62%
    14:00 +8°C° 0 mm 5 mps 595 mmHg 62%
    15:00 +8°C° 0 mm 5 mps 594 mmHg 63%
    16:00 +7°C° 0 mm 5 mps 594 mmHg 64%
    17:00 +6°C° 0 mm 5 mps 594 mmHg 69%
    18:00 +5°C° 0 mm 5 mps 594 mmHg 74%
    19:00 +3°C° 0 mm 5 mps 593 mmHg 79%
    20:00 +2°C° 0 mm 5 mps 594 mmHg 80%
    21:00 +2°C° 0 mm 5 mps 594 mmHg 82%
    22:00 +2°C° 0 mm 5 mps 595 mmHg 83%
    23:00 +2°C° 0 mm 5 mps 595 mmHg 84%

    Day after tomorrow, 25 April, Thursday

    Time Temperature Precipitation Wind Pressure Humidity
    00:00 +1°C° 0 mm 4 mps 595 mmHg 85%
    01:00 +1°C° 0 mm 4 mps 596 mmHg 86%
    02:00 +1°C° 0 mm 4 mps 596 mmHg 86%
    03:00 +1°C° 0 mm 4 mps 596 mmHg 86%
    04:00 +1°C° 0 mm 4 mps 596 mmHg 86%
    05:00 +1°C° 0 mm 4 mps 596 mmHg 83%
    06:00 +3°C° 0 mm 4 mps 596 mmHg 81%
    07:00 +3°C° 0 mm 5 mps 596 mmHg 78%
    08:00 +5°C° 0 mm 5 mps 597 mmHg 73%
    09:00 +7°C° 0 mm 5 mps 597 mmHg 68%
    10:00 +8°C° 0 mm 5 mps 598 mmHg 63%
    11:00 +8°C° 0 mm 5 mps 597 mmHg 64%
    12:00 +8°C° 0 mm 5 mps 597 mmHg 66%
    13:00 +7°C° 0 mm 4 mps 597 mmHg 67%
    14:00 +7°C° 0 mm 5 mps 597 mmHg 67%
    15:00 +7°C° 0 mm 5 mps 596 mmHg 66%
    16:00 +7°C° 0 mm 5 mps 596 mmHg 66%
    17:00 +6°C° 0 mm 5 mps 596 mmHg 71%
    18:00 +5°C° 0 mm 4 mps 595 mmHg 76%
    19:00 +4°C° 0 mm 4 mps 595 mmHg 81%
    20:00 +4°C° 0 mm 4 mps 595 mmHg 82%
    21:00 +3°C° 0 mm 5 mps 595 mmHg 83%
    22:00 +2°C° 0 mm 5 mps 595 mmHg 83%
    23:00 +2°C° 0 mm 5 mps 595 mmHg 84%

    26 April, Friday

    Time Temperature Precipitation Wind Pressure Humidity
    00:00 +3°C° 0 mm 4 mps 595 mmHg 84%
    01:00 +3°C° 0 mm 4 mps 595 mmHg 84%
    02:00 +3°C° 0 mm 4 mps 595 mmHg 85%
    03:00 +3°C° 0 mm 4 mps 595 mmHg 86%
    04:00 +3°C° 0 mm 4 mps 594 mmHg 86%
    05:00 +3°C° 0 mm 4 mps 595 mmHg 85%
    06:00 +4°C° 0 mm 4 mps 595 mmHg 83%
    07:00 +4°C° 0 mm 4 mps 595 mmHg 81%
    08:00 +5°C° 0 mm 4 mps 595 mmHg 75%
    09:00 +7°C° 0 mm 3 mps 596 mmHg 69%
    10:00 +9°C° 0 mm 3 mps 597 mmHg 62%
    11:00 +9°C° 0 mm 3 mps 597 mmHg 61%
    12:00 +10°C° 0 mm 3 mps 597 mmHg 59%
    13:00 +10°C° 0 mm 3 mps 598 mmHg 57%
    14:00 +9°C° 0.5 mm 3 mps 597 mmHg 65%
    15:00 +7°C° 0.5 mm 2 mps 596 mmHg 73%
    16:00 +5°C° 0.5 mm 2 mps 596 mmHg 82%
    17:00 +2°C° 1.9 mm 3 mps 595 mmHg 87%
    18:00 0°C° 1.9 mm 3 mps 595 mmHg 91%
    19:00 -2°C° 1.9 mm 3 mps 594 mmHg 96%
    20:00 -4°C° 2.3 mm 3 mps 594 mmHg 96%
    21:00 -4°C° 2.3 mm 2 mps 594 mmHg 96%
    22:00 -5°C° 2.3 mm 2 mps 594 mmHg 96%
    23:00 -5°C° 1 mm 2 mps 594 mmHg 96%

    27 April, Saturday

    Time Temperature Precipitation Wind Pressure Humidity
    00:00 -5°C° 1 mm 3 mps 594 mmHg 96%
    01:00 -5°C° 1 mm 3 mps 594 mmHg 96%
    02:00 -5°C° 0.6 mm 3 mps 594 mmHg 96%
    03:00 -6°C° 0.6 mm 3 mps 594 mmHg 96%
    04:00 -5°C° 0.6 mm 2 mps 594 mmHg 95%
    05:00 -4°C° 0.3 mm 2 mps 595 mmHg 95%
    06:00 -5°C° 0.3 mm 3 mps 595 mmHg 95%
    07:00 -4°C° 0.3 mm 3 mps 596 mmHg 95%
    08:00 -2°C° 0.2 mm 3 mps 596 mmHg 94%
    09:00 -1°C° 0.2 mm 3 mps 596 mmHg 94%
    10:00 0°C° 0.2 mm 3 mps 597 mmHg 94%
    11:00 -1°C° 0.6 mm 3 mps 597 mmHg 94%
    12:00 -1°C° 0.6 mm 3 mps 597 mmHg 94%
    13:00 -1°C° 0.6 mm 3 mps 596 mmHg 95%
    14:00 -1°C° 0.4 mm 3 mps 597 mmHg 95%
    15:00 -1°C° 0.4 mm 3 mps 597 mmHg 94%
    16:00 -1°C° 0.4 mm 3 mps 597 mmHg 94%
    17:00 -2°C° 0.1 mm 3 mps 597 mmHg 95%
    18:00 -2°C° 0.1 mm 3 mps 597 mmHg 95%
    19:00 -4°C° 0.1 mm 3 mps 598 mmHg 96%
    20:00 -3°C° 0.1 mm 2 mps 598 mmHg 96%
    21:00 -4°C° 0.1 mm 2 mps 598 mmHg 96%
    22:00 -4°C° 0.1 mm 2 mps 599 mmHg 96%
    23:00 -5°C° 0.1 mm 2 mps 599 mmHg 96%

    28 April, Sunday

    Time Temperature Precipitation Wind Pressure Humidity
    00:00 -5°C° 0.1 mm 2 mps 599 mmHg 96%
    01:00 -5°C° 0.1 mm 2 mps 599 mmHg 95%
    02:00 -5°C° 0 mm 2 mps 599 mmHg 95%
    03:00 -6°C° 0 mm 2 mps 599 mmHg 95%
    04:00 -4°C° 0 mm 1 mps 598 mmHg 95%
    05:00 -3°C° 0 mm 1 mps 599 mmHg 93%
    06:00 -3°C° 0 mm 1 mps 599 mmHg 92%
    07:00 -2°C° 0 mm 1 mps 599 mmHg 90%
    08:00 0°C° 0 mm 1 mps 600 mmHg 87%
    09:00 -1°C° 0 mm 2 mps 600 mmHg 85%
    10:00 +1°C° 0 mm 2 mps 600 mmHg 82%
    11:00 +2°C° 0 mm 2 mps 600 mmHg 81%
    12:00 +3°C° 0 mm 2 mps 600 mmHg 79%
    13:00 +3°C° 0 mm 2 mps 600 mmHg 78%
    14:00 +3°C° 0.1 mm 2 mps 600 mmHg 80%
    15:00 +3°C° 0.1 mm 2 mps 599 mmHg 82%
    16:00 +4°C° 0.1 mm 1 mps 599 mmHg 84%
    17:00 +3°C° 0.3 mm 1 mps 598 mmHg 88%
    18:00 +2°C° 0.3 mm 1 mps 598 mmHg 92%
    19:00 +1°C° 0.3 mm 1 mps 598 mmHg 96%
    20:00 +1°C° 0.5 mm 1 mps 598 mmHg 96%
    21:00 +1°C° 0.5 mm 1 mps 598 mmHg 96%
    22:00 +1°C° 0.5 mm 1 mps 598 mmHg 96%
    23:00 0°C° 0.4 mm 1 mps 598 mmHg 95%
    Show more